{"data":{"norad_id":56946,"intl_designator":"2023-084Q","name":"GREGOIRE","alt_names":[],"object_type":"PAYLOAD","status":"ACTIVE","operator":null,"country":"BEL","launch_date":"2023-06-12","launch_site_code":"AFWTR","launch_vehicle":null,"mission":null,"orbit_class":"UNKNOWN","rcs_meters":null,"size_class":null,"mass_kg":null,"dimensions":null,"purposes":[],"wikipedia_slug":null,"has_3d_model":false,"image_url":null,"decayed_at":null,"tle_current":{"epoch":"2026-09-21T21:20:46.621536Z","epoch_age_seconds":79596,"freshness":"FRESH","line1":"1 56946U 23084Q   26264.88942849  .00006283  00000+0  16089-3 0  9994","line2":"2 56946  97.6367  52.7205 0005280 343.3609  16.7462 15.39771413182585","mean_motion":15.39771413,"eccentricity":0.000528,"inclination_deg":97.6367,"raan_deg":52.7205,"arg_perigee_deg":343.3609,"mean_anomaly_deg":16.7462,"bstar":0.00016089,"rev_number":18258,"period_min":93.520375027251,"perigee_km":443.18113896559,"apogee_km":450.38825627827,"semimajor_km":6824.9216976219,"source":"CELESTRAK","updated_at":"2026-09-22T09:00:25.993109Z"}}}